Weather History for KHTS - November, 2012

Change the Weather History Date:

Monday, November 5, 2012

  Actual Average Record
Temperature  
Mean Temperature 39 °F 51 °F  
Max Temperature 48 °F 61 °F 85 °F (1948)
Min Temperature 30 °F 40 °F 14 °F (1991)
Degree Days  
Heating Degree Days 26 15  
Month to date heating degree days 109 70  
Since 1 July heating degree days 510 409  
Cooling Degree Days 0 0  
Month to date cooling degree days 0 0  
Year to date cooling degree days 1325 1132  
Moisture  
Dew Point 29 °F    
Average Humidity 71    
Maximum Humidity 96    
Minimum Humidity 45    
Precipitation  
Precipitation 0.00 in 0.11 in 1.71 in (2003)
Month to date precipitation 0.17 0.56  
Year to date precipitation 35.76 36.40  
Snow  
Snow 0.00 in - - ()
Month to date snowfall 0.0  
Since 1 September snowfall 1.9  
Snow Depth 0.00 in    
Sea Level Pressure  
Sea Level Pressure 30.14 in    
Wind  
Wind Speed 2 mph (ENE)    
Max Wind Speed 9 mph    
Max Gust Speed 13 mph    
Visibility 9 miles    
Events      
T = Trace of Precipitation, MM = Missing Value Source: NWS Daily Summary

Daily Weather History Graph

Daily Weather History Graph

Search for Another Location

Airport or City:

Trip Planner

Search our weather history database for the weather conditions in past years. The results will help you decide how hot, cold, wet, or windy it might be!

Date:

Astronomy

Nov. 05, 2012 Rise Set
Actual Time 7:01 AM EST 5:25 PM EST
Civil Twilight 6:33 AM EST 5:53 PM EST
Nautical Twilight 6:02 AM EST 6:24 PM EST
Astronomical Twilight 5:31 AM EST 6:55 PM EST
Moon 11:02 PM EST 12:19 PM EST
Length of Visible Light 11h 19m
Length of Day
10h 24m
Waning Gibbous, 63% of the Moon is Illuminated
Nov 5
Waning Gibbous
Nov 6
Last Quarter
Nov 13
New
Nov 20
First Quarter
Nov 28
Full

Hourly Weather History & Observations

Time (EST) Temp. Windchill Dew Point Humidity Pressure Visibility Wind Dir Wind Speed Gust Speed Precip Events Conditions
12:51 AM 37.0 °F - 30.0 °F 76% 30.12 in 10.0 mi Calm Calm - N/A   Clear
1:51 AM 36.0 °F - 30.0 °F 79% 30.13 in 10.0 mi Calm Calm - N/A   Partly Cloudy
2:51 AM 33.1 °F - 30.9 °F 92% 30.14 in 10.0 mi Calm Calm - N/A   Mostly Cloudy
3:51 AM 33.1 °F 30.0 °F 30.0 °F 89% 30.14 in 10.0 mi North 3.5 mph - N/A   Clear
4:51 AM 32.0 °F - 30.0 °F 92% 30.15 in 6.0 mi Calm Calm - N/A   Clear
5:51 AM 30.0 °F - 28.9 °F 96% 30.17 in 6.0 mi Calm Calm - N/A   Overcast
6:51 AM 30.9 °F - 28.9 °F 92% 30.17 in 5.0 mi Calm Calm - N/A   Overcast
7:51 AM 30.0 °F - 28.9 °F 96% 30.18 in 4.0 mi Calm Calm - N/A   Overcast
8:51 AM 34.0 °F - 32.0 °F 92% 30.19 in 7.0 mi Calm Calm - N/A   Mostly Cloudy
9:51 AM 39.0 °F - 30.9 °F 73% 30.19 in 10.0 mi Calm Calm - N/A   Mostly Cloudy
10:51 AM 41.0 °F 38.0 °F 27.0 °F 57% 30.19 in 10.0 mi East 4.6 mph - N/A   Overcast
11:51 AM 44.1 °F 42.5 °F 28.0 °F 53% 30.17 in 10.0 mi East 3.5 mph - N/A   Scattered Clouds
12:51 PM 46.0 °F 43.9 °F 28.9 °F 51% 30.15 in 10.0 mi Variable 4.6 mph - N/A   Scattered Clouds
1:51 PM 46.9 °F - 27.0 °F 46% 30.13 in 10.0 mi Calm Calm - N/A   Clear
2:51 PM 46.9 °F - 27.0 °F 46% 30.11 in 10.0 mi Variable 4.6 mph - N/A   Clear
3:51 PM 46.0 °F 43.1 °F 27.0 °F 47% 30.10 in 10.0 mi ESE 5.8 mph - N/A   Clear
4:51 PM 45.0 °F 43.5 °F 27.0 °F 49% 30.10 in 10.0 mi NE 3.5 mph - N/A   Clear
5:51 PM 43.0 °F - 26.1 °F 51% 30.11 in 10.0 mi Calm Calm - N/A   Clear
6:51 PM 41.0 °F - 26.1 °F 55% 30.12 in 10.0 mi Calm Calm - N/A   Clear
7:51 PM 39.0 °F - 27.0 °F 62% 30.12 in 10.0 mi Calm Calm - N/A   Clear
8:51 PM 37.9 °F - 28.0 °F 68% 30.13 in 10.0 mi Calm Calm - N/A   Clear
9:51 PM 36.0 °F 33.3 °F 28.9 °F 76% 30.12 in 10.0 mi NE 3.5 mph - N/A   Clear
10:51 PM 37.0 °F 32.4 °F 28.0 °F 70% 30.10 in 10.0 mi ENE 5.8 mph - N/A   Clear
11:51 PM 36.0 °F 31.1 °F 28.0 °F 73% 30.10 in 8.0 mi ENE 5.8 mph - N/A   Clear